Wind_Speed
48 48 47 47 47 47 48 48 49 50 51 52 53 55 56 57 58 59 60 61 62 64 65 66 66 66 66 66 66 67 68 68 68 67 66 65 64 62 61 59 57 56 55 53 52 51 50 50 49 49 49 49 48 48 47 46 46 45 44 44 43 43 42 43 44 43 42 43 44 44 43 44 44 44 44 43 43 42 42 42 42 42 42 43 43
50 49 48 48 48 48 49 49 50 51 52 52 53 55 56 57 58 59 60 61 62 63 64 65 65 65 65 66 66 66 66 66 65 65 64 63 61 59 57 56 54 52 51 49 47 46 46 45 45 45 44 44 43 43 42 41 41 40 40 40 40 39 40 40 41 41 40 40 41 42 41 42 42 43 43 43 43 42 42 41 41 41 42 42 43
50 49 49 49 49 50 51 52 53 54 54 55 55 56 57 57 58 59 60 61 62 63 64 65 64 64 64 64 63 63 62 62 61 60 59 58 56 54 51 49 48 46 44 43 42 42 41 41 41 40 40 39 39 39 39 39 39 39 39 39 39 39 40 40 41 41 41 41 42 42 42 42 43 44 44 44 44 44 43 42 42 41 42 42 43
51 51 52 52 53 54 55 55 56 56 56 56 56 56 57 57 58 59 60 61 62 63 63 63 63 63 63 63 63 62 61 60 58 57 55 53 51 48 46 43 42 41 40 39 39 39 39 39 38 38 38 38 39 39 39 39 39 40 40 40 41 41 41 41 42 42 43 43 43 43 43 44 44 45 45 45 45 45 45 44 44 43 43 43 43
54 54 55 56 56 56 57 57 56 56 56 56 56 56 56 57 58 58 59 60 61 61 62 62 63 63 63 62 61 59 58 56 54 53 51 49 47 44 42 41 40 40 40 40 40 39 39 39 40 40 40 40 40 40 39 40 40 40 40 40 40 40 40 41 42 42 43 44 43 43 43 44 45 45 46 46 46 45 45 45 45 45 44 43 43
57 57 57 58 58 58 58 58 57 57 57 56 56 57 57 57 58 59 59 60 60 60 60 60 60 59 59 58 56 54 53 51 51 50 48 46 45 42 41 41 41 41 41 41 40 40 40 40 40 40 40 39 39 39 38 38 38 37 37 37 37 38 38 39 40 41 42 42 42 43 43 43 44 45 45 45 45 45 45 44 44 44 44 44 43
58 59 59 59 59 59 59 59 58 58 58 58 58 58 58 59 59 60 60 60 59 59 58 57 57 56 55 54 53 51 50 50 50 49 48 46 43 41 41 42 42 41 40 40 40 39 39 39 38 37 37 37 36 36 36 36 36 36 35 35 35 36 37 38 39 40 41 41 41 42 42 42 42 42 43 43 43 43 44 44 44 43 43 43 43
59 59 60 59 60 60 60 59 59 59 59 59 59 59 59 60 59 59 59 58 58 58 57 56 55 54 53 52 51 50 49 49 49 48 47 44 41 40 41 41 39 38 37 37 36 36 36 35 35 35 35 35 34 34 34 34 35 34 34 34 35 36 37 37 38 39 40 40 40 41 40 39 39 40 40 40 41 41 41 43 43 42 41 41 41
60 60 60 60 60 60 60 59 59 59 59 59 59 59 59 59 58 58 58 58 57 56 55 54 52 52 50 49 48 47 46 46 46 46 44 40 38 39 39 37 36 36 35 34 34 34 33 33 33 32 32 32 32 32 32 32 32 32 32 32 33 33 33 34 34 35 36 37 37 37 36 36 36 36 36 37 38 39 39 40 40 40 39 38 38
60 61 61 60 61 60 60 59 59 59 59 58 58 58 58 58 58 57 57 55 54 52 51 50 49 48 47 46 45 44 43 43 42 43 41 37 36 37 36 35 35 34 33 32 31 31 30 30 30 30 29 29 29 29 29 29 29 29 29 30 31 30 30 30 31 31 32 33 33 33 33 33 33 33 33 33 34 36 37 37 37 36 36 36 35
61 61 61 61 60 60 59 59 58 58 58 57 58 57 57 56 55 54 53 51 50 49 48 47 47 46 45 43 42 41 40 39 37 38 38 35 34 35 35 34 34 33 31 30 29 28 27 27 27 27 27 27 27 27 27 27 27 27 27 28 29 30 30 29 30 30 31 32 32 32 31 31 31 31 31 31 31 32 32 33 33 33 32 32 31
61 61 61 60 60 59 59 58 58 57 57 57 56 55 54 53 52 51 50 49 48 47 45 44 44 43 41 40 39 37 36 35 34 35 36 35 33 34 33 32 31 30 29 28 28 27 26 26 26 26 26 26 26 26 26 26 27 27 27 27 28 29 29 30 30 30 30 31 31 31 31 31 30 30 29 29 29 28 28 28 29 29 28 27 26
60 60 60 59 59 58 58 57 57 57 56 56 55 53 52 51 50 49 48 47 46 44 43 42 40 39 38 37 36 35 34 33 33 33 34 33 32 31 31 30 29 28 28 27 27 27 26 26 25 25 26 26 27 27 27 27 27 27 28 28 28 28 28 29 29 30 30 30 30 30 30 30 30 29 28 28 27 25 24 24 25 25 24 23 23
59 59 59 58 58 57 57 57 56 56 55 54 52 51 50 49 49 48 46 45 44 42 41 39 38 37 36 35 35 34 34 33 32 31 31 30 29 29 29 28 28 28 28 28 28 28 27 27 27 26 27 27 27 28 28 28 28 28 28 28 28 28 28 27 27 27 28 28 28 29 29 29 29 29 28 26 24 23 22 21 21 21 21 20 20
59 59 58 57 57 56 56 56 55 54 53 52 51 50 49 48 47 46 45 44 42 41 39 37 36 35 34 34 34 33 32 31 30 29 29 28 27 27 27 27 28 28 28 28 29 29 28 28 28 28 28 29 29 30 30 30 30 30 30 29 28 27 27 26 26 25 25 25 25 26 26 25 25 26 27 25 21 20 20 19 19 19 18 18 19
59 58 57 56 56 55 55 54 53 52 51 50 49 48 48 47 45 44 43 41 40 38 37 35 34 34 33 33 32 31 31 30 29 28 28 27 27 26 26 27 27 28 28 28 29 30 30 30 30 30 30 30 31 31 32 31 31 31 30 29 27 25 23 24 25 25 24 23 22 23 24 23 22 23 25 25 21 19 19 19 18 18 18 18 18
57 57 56 56 55 54 53 52 51 51 49 48 48 47 46 45 44 42 40 39 38 36 35 34 34 33 33 32 31 30 30 29 29 28 28 27 27 27 27 27 27 28 29 29 30 31 32 32 32 32 32 32 32 32 32 32 31 31 30 28 26 22 20 21 22 24 24 23 21 21 21 20 20 20 22 24 22 19 19 18 17 17 17 17 17
56 56 55 54 53 52 52 51 50 49 48 47 46 45 44 43 42 40 39 38 37 36 35 34 33 33 32 31 30 30 30 29 29 29 29 28 28 28 28 28 29 29 29 30 30 31 32 33 33 33 33 33 32 32 31 31 31 30 28 26 24 21 20 19 19 20 22 22 21 21 20 19 18 18 19 20 20 19 18 18 17 17 16 16 15
55 55 54 53 52 51 50 49 48 47 46 45 44 43 42 41 40 39 38 37 36 35 34 34 33 32 32 31 30 30 30 30 30 30 30 30 30 30 30 30 30 30 30 30 30 31 31 32 32 32 32 32 32 31 30 29 29 28 27 25 22 21 20 19 18 17 17 18 19 19 20 19 18 17 17 17 17 17 17 17 17 16 15 15 14
54 54 53 52 50 49 48 47 46 45 44 44 42 41 41 40 38 37 36 35 34 34 34 34 33 32 31 31 31 30 30 31 31 31 31 32 32 32 33 32 32 32 32 31 31 30 30 30 31 31 31 31 30 29 28 27 26 26 25 23 21 20 19 18 18 16 16 16 16 16 17 17 17 16 16 16 16 16 16 16 15 15 14 14 13
53 52 51 50 48 47 46 45 44 44 43 42 41 40 39 38 36 35 34 34 33 33 32 32 32 32 32 32 32 32 32 32 32 33 33 33 34 34 34 34 34 33 33 32 32 31 31 30 30 29 29 29 28 27 26 25 23 23 23 22 21 20 19 19 18 17 16 15 14 14 14 15 16 16 16 16 16 15 15 15 14 14 13 12 12
51 50 49 47 46 45 44 43 42 42 41 40 40 39 38 37 35 34 33 33 32 31 31 30 31 32 32 32 32 33 33 33 33 34 34 34 35 35 35 35 35 34 33 32 32 32 31 31 30 28 27 27 26 26 24 23 22 21 21 21 21 20 20 19 18 17 16 15 14 13 13 14 14 15 15 16 16 16 15 14 13 12 11 11 10
49 48 46 46 45 43 42 41 40 40 39 39 38 37 36 36 35 33 32 32 31 30 30 29 29 30 31 32 32 32 33 33 33 33 34 34 34 34 35 35 34 34 34 33 32 32 31 30 28 27 26 25 25 24 22 21 20 20 19 19 20 20 20 19 18 17 15 14 13 12 12 12 13 13 14 15 15 15 15 14 13 12 10 9 8
46 45 44 44 43 42 41 40 39 39 38 38 37 36 35 34 33 32 31 30 30 29 29 29 29 29 30 30 30 30 31 31 32 32 33 33 33 33 33 33 33 33 33 32 32 30 29 28 27 26 25 24 22 21 21 20 20 19 19 19 19 19 19 19 18 17 15 14 13 12 12 11 12 12 13 13 14 14 13 12 12 11 10 9 8
44 43 43 42 42 41 41 40 39 39 38 37 36 36 34 33 32 31 30 30 29 29 29 29 29 29 29 29 29 29 29 29 30 30 30 30 30 30 31 32 32 32 31 30 29 29 28 27 26 25 23 22 20 19 19 19 19 18 18 18 18 18 18 18 18 17 16 15 13 13 12 12 12 12 12 12 13 13 13 13 12 11 10 9 8
43 42 42 41 40 40 40 40 39 39 38 37 36 35 34 33 32 31 30 29 29 29 28 28 28 28 28 28 28 28 28 28 28 28 28 28 28 28 29 30 30 29 29 28 28 27 26 25 24 23 22 21 19 18 18 18 18 18 18 18 18 17 17 17 17 16 16 15 14 13 12 12 12 12 12 13 13 13 13 13 13 12 12 11 9
42 41 41 40 39 39 39 39 39 38 37 37 36 35 34 33 32 30 29 28 28 28 28 28 28 27 27 27 27 28 28 28 27 26 26 26 26 27 27 27 27 26 26 26 25 25 25 24 24 24 24 24 23 21 20 20 19 19 19 18 18 18 17 17 16 16 15 15 14 13 13 13 13 13 13 14 14 14 13 13 13 13 12 12 10
41 40 40 39 39 39 38 38 38 37 37 36 35 34 33 32 32 31 30 30 29 29 29 29 29 29 28 28 27 27 28 28 28 28 28 27 27 26 26 25 25 24 24 24 24 24 24 25 25 25 25 24 24 23 22 21 19 19 18 18 18 18 18 19 18 18 17 16 16 15 14 14 14 14 14 14 15 15 15 14 14 13 13 12 12
40 40 39 39 39 38 38 37 36 36 36 35 35 35 33 32 32 32 31 31 31 31 31 31 31 31 31 30 29 28 28 29 30 30 30 29 28 27 26 26 25 25 25 25 25 25 25 25 24 23 22 21 21 21 21 20 19 18 18 18 18 18 19 19 18 17 17 17 16 15 15 15 15 15 15 15 15 16 16 15 15 14 13 13 12
40 39 39 38 38 37 36 36 35 34 33 33 33 34 35 34 33 32 32 32 31 32 32 32 31 31 30 30 30 30 31 31 31 30 29 29 28 28 27 27 26 26 26 26 26 26 26 25 24 22 21 20 20 19 19 19 19 18 18 18 18 18 18 18 18 18 17 17 16 16 15 15 15 15 16 16 15 15 16 15 15 14 14 13 12
39 39 38 37 36 35 35 34 33 33 32 31 30 31 32 33 33 32 31 31 30 30 30 30 30 29 29 28 29 30 30 29 28 28 28 28 27 27 27 27 27 27 27 28 28 27 26 25 24 23 22 21 20 20 19 19 19 19 19 19 19 19 19 19 19 19 19 18 17 17 16 16 17 16 16 16 16 16 16 16 16 15 14 13 12
38 38 37 36 35 34 34 33 33 32 31 30 29 28 27 29 30 31 31 30 29 29 29 29 28 28 27 27 28 27 27 26 26 27 28 27 27 27 27 27 28 29 29 29 28 27 26 25 24 23 23 22 22 21 20 20 20 20 20 20 20 19 19 19 19 19 19 18 18 18 18 18 18 18 18 18 18 18 17 17 17 16 14 13 13
37 37 36 35 34 34 33 33 32 31 29 28 28 27 26 26 26 27 29 29 29 28 28 27 27 27 27 27 26 26 25 26 27 27 27 27 28 28 29 30 30 30 29 28 27 26 26 25 24 24 24 24 24 23 22 22 21 21 21 21 20 20 20 20 20 19 19 19 19 20 20 20 20 20 20 19 19 19 18 18 18 17 16 14 13
37 37 36 36 35 35 33 32 31 30 29 28 27 27 27 26 25 24 24 25 26 26 26 25 26 26 26 25 25 25 25 26 26 26 26 27 28 29 31 32 31 29 28 27 26 26 25 25 25 25 25 25 25 25 24 23 23 22 22 22 21 21 21 21 21 21 21 21 21 21 21 21 21 21 20 20 20 19 19 19 18 17 16 14 13
37 37 37 37 36 35 33 32 30 29 28 28 27 27 26 26 25 24 23 23 23 24 25 25 25 25 25 25 25 26 26 26 26 25 26 27 28 29 29 28 27 26 27 26 26 26 26 26 25 25 25 25 25 25 25 24 23 23 23 22 22 23 23 22 22 22 23 23 22 22 22 22 21 21 20 20 19 19 18 18 18 17 16 15 14
37 37 37 37 35 34 32 31 30 29 28 28 27 26 26 25 25 24 24 24 24 24 25 26 26 26 26 27 27 27 26 26 26 27 28 28 28 28 27 26 26 27 27 27 27 27 27 26 26 26 26 26 25 25 25 25 24 24 24 24 24 24 24 24 23 24 24 23 23 23 22 22 21 21 21 21 20 20 20 20 19 19 18 17 17
36 37 36 35 33 32 31 30 30 29 28 27 27 26 25 25 25 24 23 23 23 23 24 24 25 26 26 27 27 26 26 27 28 29 29 28 28 28 27 27 28 28 27 27 27 27 27 27 26 26 26 26 26 26 25 25 25 25 24 25 25 24 24 24 24 24 24 23 23 22 22 22 21 21 21 21 21 22 22 21 21 21 21 20 19
35 35 34 33 32 31 31 30 29 28 27 26 26 25 25 25 24 24 23 23 23 23 23 23 24 24 25 25 25 25 26 26 26 26 25 26 27 27 28 28 28 28 28 28 28 27 27 27 27 27 27 27 26 26 26 26 26 26 26 26 26 25 25 25 25 24 24 23 23 22 22 21 21 21 22 22 22 22 22 22 22 22 22 21 21
33 33 32 32 31 30 30 29 28 27 27 26 25 25 24 24 24 23 23 23 23 23 23 24 24 24 24 23 23 23 23 22 22 23 24 26 27 28 28 29 28 28 28 28 28 27 27 27 27 27 27 27 27 27 26 26 26 26 26 26 26 25 25 24 23 23 23 23 23 23 23 22 22 22 22 22 22 22 22 22 22 22 22 23 23
31 31 31 31 30 30 29 28 28 27 26 25 25 24 24 24 24 24 24 24 24 24 24 24 24 24 23 22 22 22 22 22 23 24 25 26 27 27 27 28 28 28 28 28 27 27 27 27 27 27 27 27 27 27 26 27 26 26 26 25 24 24 23 23 23 23 23 23 23 23 23 23 23 23 23 23 22 23 23 23 23 23 24 24 24
29 30 30 30 30 29 29 28 27 26 26 25 25 24 24 24 25 25 25 25 25 25 25 25 24 24 24 23 23 23 23 24 25 26 26 27 27 26 26 26 26 27 27 27 27 27 27 27 27 27 27 27 27 27 26 26 26 25 24 24 23 23 23 23 23 24 24 24 24 23 23 23 23 23 24 24 24 24 24 24 25 25 25 24 23
29 29 29 29 29 29 29 28 27 26 25 25 25 25 25 25 26 26 26 26 26 26 25 25 25 25 25 25 25 25 25 26 27 27 27 27 27 26 26 26 25 25 26 26 26 27 27 27 27 27 27 27 26 26 26 25 25 24 24 24 24 24 24 25 25 25 25 24 24 24 25 25 25 25 25 25 25 25 25 25 25 24 23 23 22
28 28 29 29 29 28 28 27 26 26 26 26 26 26 26 26 26 26 26 26 26 26 26 26 26 26 26 26 26 26 27 27 27 27 27 27 27 26 26 25 25 25 26 26 26 26 26 26 26 26 26 26 26 25 25 25 25 25 25 25 25 25 25 25 25 25 25 24 24 25 25 25 26 26 26 26 26 25 25 24 23 22 21 21 21
28 28 29 29 29 28 27 27 27 27 27 27 27 27 27 27 27 27 27 27 27 27 27 27 27 26 26 26 26 27 27 26 26 26 26 26 26 26 26 26 26 26 27 27 27 27 26 26 26 26 26 26 26 26 26 25 25 25 25 25 25 25 24 24 24 24 24 24 24 25 26 26 26 26 26 25 24 23 23 22 21 20 19 19 18
28 29 29 29 29 28 28 27 27 28 28 28 28 29 29 29 29 28 28 28 28 28 27 27 27 27 27 27 27 26 26 26 26 26 26 26 26 26 26 26 26 27 27 27 27 27 27 27 27 26 26 26 26 26 26 25 25 24 24 24 24 24 24 24 24 24 24 24 25 26 26 26 26 26 25 24 23 22 21 21 20 20 20 19 18
29 29 29 29 29 28 28 28 28 29 29 29 29 30 30 30 29 29 29 29 29 29 28 28 28 28 27 27 27 27 26 26 26 26 26 26 27 27 27 27 27 27 27 27 27 27 27 27 27 26 26 26 26 25 25 25 24 24 24 24 24 23 24 24 24 24 24 24 25 26 26 25 25 25 24 24 23 22 21 21 20 20 20 20 20
29 29 29 29 28 28 28 29 29 30 30 30 31 31 30 30 30 30 30 29 29 29 29 28 28 27 27 27 26 26 26 26 26 27 27 27 27 28 28 28 28 28 28 28 27 27 27 27 26 26 26 25 25 25 25 24 24 24 24 24 23 23 24 23 23 23 23 24 24 24 24 24 24 24 24 24 23 22 21 21 20 20 20 20 20
29 28 28 28 28 29 29 30 30 30 31 31 31 31 31 31 31 30 30 30 29 29 28 28 27 27 27 27 26 26 27 27 27 27 28 28 28 28 28 28 28 28 28 27 27 27 27 26 26 26 25 25 25 25 25 24 24 24 24 23 23 23 23 23 23 23 23 23 24 24 23 23 23 23 24 24 23 21 21 21 22 22 22 22 22
28 28 28 29 29 29 30 30 31 31 31 32 32 31 31 31 30 30 30 29 29 28 28 28 28 27 27 27 27 27 27 27 28 28 28 28 28 27 27 27 27 27 27 27 27 26 26 26 26 26 25 25 25 25 25 24 24 24 23 23 23 23 23 22 22 22 23 23 23 23 23 23 23 23 23 23 22 21 21 22 22 22 22 22 22
28 29 29 30 30 30 31 31 31 32 32 32 31 31 30 30 30 29 29 29 28 28 28 28 28 28 28 28 27 27 27 27 27 27 27 27 27 27 27 27 27 27 27 26 26 26 26 26 25 25 25 24 24 24 24 24 24 23 23 23 23 22 22 21 21 22 22 22 22 22 22 22 22 22 22 22 21 21 21 22 22 22 22 22 22
29 30 30 31 31 31 31 31 31 31 31 31 30 30 30 29 29 29 29 28 28 28 28 28 28 28 28 27 27 27 27 27 27 27 27 27 27 27 27 27 27 27 27 26 26 26 25 25 24 24 24 24 24 24 24 23 23 23 22 22 22 21 21 21 22 22 22 22 22 22 22 22 21 21 20 20 20 20 21 21 21 21 22 22 22
Wind_Direction
316 315 313 311 309 308 306 304 303 302 300 299 299 298 298 298 297 297 297 296 296 295 294 294 293 293 292 292 292 292 292 293 294 295 296 297 298 299 300 300 300 300 299 298 297 297 296 296 295 295 294 294 294 294 294 293 293 292 292 291 291 290 289 288 288 287 285 284 284 284 283 282 281 280 279 278 276 276 275 274 273 271 268 266 263
315 314 313 311 310 309 308 307 306 306 306 305 305 304 303 302 301 300 299 298 298 297 296 295 295 294 294 294 294 295 295 296 297 298 299 300 301 301 302 302 302 302 301 300 300 299 299 298 297 297 297 297 296 296 295 295 294 293 293 292 291 291 290 289 289 288 286 285 284 284 283 282 282 281 280 279 277 276 274 273 272 271 269 268 266
316 315 314 314 313 312 312 312 312 312 312 311 310 308 307 305 304 302 301 299 298 297 297 298 298 298 299 299 300 301 302 302 303 303 304 304 304 305 305 305 305 304 303 303 302 302 301 300 299 298 298 297 296 295 294 294 294 293 293 292 292 291 291 290 289 288 287 286 285 284 283 282 281 281 280 279 278 277 276 274 272 271 269 268 267
318 318 318 317 317 316 316 316 315 314 313 312 310 309 307 305 303 301 300 298 298 298 299 301 302 303 304 305 306 307 307 308 308 307 307 308 309 310 310 310 309 308 307 306 304 303 302 300 299 297 296 296 295 294 294 294 294 293 293 293 292 291 291 290 289 288 287 285 285 284 283 282 281 280 279 278 277 277 276 275 274 272 270 269 267
320 320 320 319 318 318 317 316 315 314 313 311 310 308 306 304 302 300 299 299 299 301 303 304 305 306 307 308 309 310 310 309 309 308 309 310 312 313 313 312 309 307 306 305 303 302 301 299 298 297 297 296 295 295 295 294 294 293 293 292 292 292 291 290 289 288 287 285 284 284 283 282 280 280 280 279 278 277 277 276 275 273 272 270 269
321 320 320 319 319 318 317 316 315 314 313 311 309 307 305 304 303 302 303 303 304 305 307 308 309 309 309 310 310 311 310 310 309 310 311 313 314 314 311 308 306 305 304 303 303 302 300 299 299 298 298 297 297 297 296 296 295 295 295 294 294 293 292 291 289 288 287 286 285 284 283 282 282 282 282 282 280 279 278 276 275 274 274 272 271
321 320 320 319 319 318 317 316 315 314 312 310 309 308 307 307 306 307 307 308 308 309 310 311 311 311 311 311 311 311 311 310 310 311 312 313 313 310 307 305 305 305 305 304 303 302 302 301 301 301 301 300 301 300 300 300 299 299 298 297 296 294 291 290 289 288 288 288 288 287 286 286 286 285 285 284 283 282 280 278 276 275 274 273 272
321 320 320 320 319 318 317 315 314 312 311 310 309 309 309 309 309 310 310 311 312 312 312 312 311 311 311 311 311 311 311 310 310 310 311 313 312 308 307 308 308 307 306 305 305 305 304 305 305 304 304 304 304 304 304 303 302 302 301 299 297 295 294 293 293 293 292 292 291 290 290 290 289 287 287 286 284 282 281 280 278 276 275 274 273
321 320 320 319 317 316 315 314 313 312 311 311 311 311 311 311 312 312 313 313 313 313 313 312 312 312 312 312 312 312 312 312 311 311 313 315 313 310 310 311 310 309 308 308 308 308 308 308 308 308 308 308 308 307 307 307 307 306 304 302 301 301 301 301 300 299 298 297 296 295 294 293 291 290 289 287 285 283 281 280 279 278 277 276 274
320 319 318 317 316 315 314 313 313 313 312 312 313 313 314 315 315 315 315 314 314 314 314 314 314 314 314 314 314 314 314 315 315 315 316 317 315 313 313 313 312 312 312 312 312 312 313 313 312 312 312 311 311 311 312 311 311 310 309 309 309 308 308 306 304 303 301 300 300 299 298 297 296 294 291 289 287 285 283 282 281 279 278 276 276
319 318 317 316 316 315 315 314 314 314 314 315 316 317 317 317 317 317 317 317 317 317 317 316 316 316 317 317 317 317 317 318 318 317 318 319 317 315 315 315 315 316 316 316 316 317 317 317 316 316 315 315 315 315 315 315 314 314 313 313 312 311 310 309 306 303 302 302 301 301 300 299 297 295 293 291 289 287 286 285 283 282 279 278 278
318 318 317 316 316 316 316 316 316 317 318 319 320 320 320 320 320 320 320 320 320 320 320 320 320 320 320 320 320 320 320 321 321 320 320 321 320 318 319 319 319 320 320 320 320 320 321 321 320 320 319 318 318 317 317 317 316 315 315 314 313 311 310 308 306 304 303 302 301 300 300 298 296 295 294 293 291 289 288 287 285 284 283 281 280
318 318 318 318 317 318 318 319 320 321 322 322 322 322 322 322 323 323 323 324 324 324 324 324 324 323 323 323 323 323 323 323 323 322 322 323 323 322 323 323 323 324 324 323 323 323 323 323 323 322 321 320 319 319 318 318 318 317 316 315 314 312 309 307 306 305 304 302 302 301 299 298 297 297 298 297 296 296 293 291 289 287 286 284 281
319 319 319 319 319 320 321 322 323 323 323 324 324 324 325 325 326 326 327 327 327 327 327 326 326 326 326 326 325 325 326 325 326 325 325 326 327 327 327 327 327 327 326 325 325 325 325 325 324 323 322 321 320 319 319 320 319 318 317 316 315 312 310 308 306 304 302 301 301 300 300 300 301 302 302 302 304 304 301 298 294 291 287 284 280
320 320 320 321 322 323 324 324 324 324 325 325 326 327 327 328 329 329 329 329 329 329 329 329 328 328 328 328 328 328 328 328 328 329 329 330 330 330 330 329 328 328 327 327 326 326 326 325 324 324 323 322 322 321 320 321 320 319 317 316 316 315 313 310 306 303 301 301 301 300 300 302 304 305 304 305 310 310 306 303 298 293 289 284 279
321 321 322 323 324 325 325 325 325 326 327 327 328 329 329 330 330 331 331 331 331 331 331 331 330 330 330 330 331 331 331 331 331 332 332 332 332 332 331 330 329 329 328 328 327 326 326 325 325 325 324 324 323 322 322 321 320 319 318 317 318 320 317 311 306 304 303 303 302 301 302 304 307 307 306 309 315 315 310 307 302 296 292 286 281
322 323 324 325 325 326 326 326 327 328 329 330 330 331 331 331 333 333 333 333 333 333 332 332 332 332 333 334 334 333 333 333 333 334 334 334 333 333 332 331 330 330 329 329 328 327 327 326 326 326 325 325 324 323 322 322 320 319 319 320 321 320 314 308 305 304 304 304 303 300 300 302 303 305 306 310 316 317 312 309 305 300 296 290 285
324 325 326 326 326 327 328 329 330 330 331 332 332 333 333 334 335 335 335 335 334 334 334 334 335 335 335 336 335 335 335 335 335 335 334 334 333 333 332 332 331 331 331 331 330 329 328 328 327 327 327 326 325 324 324 324 323 322 322 324 323 319 313 308 304 303 303 304 305 304 304 305 305 306 308 311 313 314 312 311 309 305 302 297 293
326 326 327 328 329 330 331 331 332 332 333 334 335 335 335 336 336 337 336 336 335 335 335 336 337 337 336 336 336 336 336 336 336 336 335 335 334 333 333 333 333 333 332 331 331 330 330 329 329 328 327 326 326 326 327 327 326 325 326 326 325 321 316 312 309 307 305 304 304 304 306 309 312 314 315 315 316 316 315 314 314 311 310 307 303
327 328 329 330 331 332 333 333 334 334 335 336 336 337 337 337 338 338 337 337 337 337 337 337 337 336 337 337 337 338 338 337 337 337 336 335 334 334 333 334 334 334 333 332 333 333 332 330 330 329 328 328 328 328 330 331 330 329 328 328 328 324 321 319 318 318 315 312 309 307 307 311 315 318 321 322 322 323 323 322 321 320 319 317 313
329 330 331 332 333 334 335 335 335 336 337 337 338 338 338 338 338 338 338 337 338 338 338 338 337 337 337 338 338 339 339 338 338 337 336 335 335 335 335 334 335 335 335 335 334 334 333 332 332 332 331 331 331 333 335 336 335 333 332 331 330 329 328 328 327 326 324 321 320 318 316 316 319 323 327 329 330 331 332 332 331 330 329 328 326
331 332 332 333 335 335 336 337 337 337 337 338 338 338 338 338 338 338 338 337 337 338 338 338 338 338 338 339 339 339 338 338 337 336 336 337 337 336 336 335 335 335 336 336 336 335 335 335 335 336 335 335 336 337 339 340 340 338 336 333 332 332 332 332 333 332 331 329 327 326 324 322 323 325 328 331 334 336 338 340 342 342 340 337 334
333 334 334 335 335 336 337 337 337 337 337 338 338 338 338 338 338 338 337 336 336 337 338 339 340 340 339 338 339 339 337 337 336 336 337 338 338 337 336 336 336 336 336 337 337 337 337 337 338 339 340 339 340 340 341 343 344 343 341 338 336 335 335 337 338 339 339 337 334 332 331 329 327 329 331 334 337 340 343 345 347 349 349 345 344
334 335 335 335 336 336 336 336 337 337 338 338 338 338 338 337 337 337 336 336 336 337 338 339 339 339 338 337 338 338 337 336 337 338 339 339 339 337 336 336 336 337 338 339 339 340 340 340 341 342 342 342 342 344 345 347 348 347 346 344 342 340 340 341 343 344 345 345 343 341 341 338 336 337 340 342 343 344 346 349 351 353 353 356 360
335 335 336 336 336 336 336 336 337 338 338 338 337 337 336 336 337 337 336 336 337 337 338 338 338 338 338 337 337 337 337 338 339 340 340 340 339 338 337 337 339 340 341 342 343 343 343 343 343 343 342 344 347 350 350 350 350 350 350 349 349 347 346 347 348 349 349 350 351 351 349 348 347 348 349 351 352 352 352 354 357 357 358 5 13
336 336 336 337 336 336 337 337 337 338 338 338 337 336 336 336 337 337 337 337 337 338 338 337 338 339 340 339 339 339 340 341 342 343 342 341 340 340 341 343 344 345 346 347 346 345 344 343 343 344 346 350 355 357 356 354 354 355 356 356 355 354 354 354 354 353 354 356 359 359 358 357 358 360 360 0 2 2 359 359 0 360 1 8 16
337 337 336 336 337 337 338 338 338 338 338 338 337 337 337 337 337 337 338 339 339 339 339 340 341 342 343 345 345 344 345 344 344 345 346 345 346 348 350 351 351 351 349 348 347 346 346 346 348 351 353 355 357 359 0 360 360 360 360 0 0 0 1 3 4 5 6 8 9 9 9 10 11 11 9 8 9 10 9 8 7 6 7 11 16
337 337 337 338 339 339 340 340 339 339 339 339 339 339 338 338 339 340 341 342 342 343 344 345 346 347 348 351 351 350 348 347 348 349 351 353 356 358 358 357 355 354 353 351 351 352 354 356 356 356 356 355 354 356 359 2 4 4 4 5 7 7 9 11 13 14 14 14 16 16 17 19 20 20 18 16 16 17 18 18 18 17 17 18 21
338 339 339 340 341 341 341 341 341 340 340 340 340 341 342 342 343 344 345 345 346 346 348 350 351 352 352 353 354 354 353 353 354 355 357 360 2 2 1 1 360 359 359 359 360 1 3 3 1 0 359 358 357 358 360 3 7 9 10 12 14 15 16 17 18 19 19 20 20 21 23 25 24 24 25 24 24 24 24 25 27 28 27 28 29
340 341 342 342 342 341 341 341 341 342 343 343 343 343 344 345 346 347 348 348 349 349 350 352 354 355 356 355 355 356 357 357 358 360 2 4 4 4 4 5 5 4 5 6 8 8 7 6 6 7 7 6 7 9 9 10 14 17 18 20 22 23 24 24 25 25 27 28 28 28 29 30 29 28 29 29 29 29 30 31 34 36 37 35 34
343 343 343 344 343 343 343 344 344 345 346 347 347 346 346 346 347 348 350 350 350 351 352 354 356 357 358 359 359 360 360 1 2 4 5 6 7 8 9 9 9 10 11 11 12 11 10 10 11 13 14 16 19 23 22 21 23 26 28 29 30 30 30 30 30 31 32 33 35 35 34 33 32 32 32 32 33 33 33 35 37 39 41 40 37
345 345 346 346 346 346 347 347 348 349 349 350 350 351 351 350 349 349 350 351 353 354 355 356 358 0 2 2 3 4 5 7 8 8 7 8 11 12 14 15 15 15 14 13 13 13 14 17 18 20 23 26 29 32 32 32 32 33 34 35 35 35 35 36 36 37 37 38 38 38 37 36 36 36 35 35 34 34 35 37 39 41 43 43 39
349 349 349 349 349 350 350 351 351 352 352 353 354 355 357 358 355 353 352 353 354 356 358 359 2 4 5 5 7 10 12 12 12 11 12 14 15 15 17 19 19 18 16 16 16 18 20 23 25 27 30 32 35 37 38 39 39 39 39 40 41 41 41 42 42 41 41 41 40 40 40 39 39 39 39 39 39 40 40 42 43 45 46 46 43
353 352 353 353 354 355 354 354 354 354 355 357 359 360 1 3 3 2 359 356 355 357 1 4 6 7 8 11 14 16 16 15 15 17 19 20 19 19 20 20 19 18 19 20 22 25 28 30 32 34 36 38 39 41 42 43 43 42 43 43 44 44 44 44 43 43 42 42 43 42 42 42 42 41 40 40 39 39 39 40 41 43 46 47 48
356 356 356 357 358 358 357 356 357 358 359 2 4 5 7 8 8 7 5 4 2 3 5 8 10 12 15 17 19 19 18 18 19 22 25 26 25 25 25 23 22 22 23 26 28 31 34 36 38 40 41 42 43 44 44 45 45 45 45 45 45 46 46 44 44 45 45 45 45 44 43 43 42 40 39 39 38 39 39 40 41 44 47 49 50
0 360 360 0 360 359 359 360 1 2 5 7 8 10 12 13 12 10 9 9 10 10 10 10 12 16 19 19 18 17 19 21 24 26 28 29 29 29 29 28 28 28 29 30 32 34 37 39 41 42 44 45 45 46 46 46 46 46 47 47 47 47 47 47 47 47 46 45 44 42 41 40 38 38 37 37 38 40 42 43 45 48 51 53 54
3 2 2 2 2 2 3 4 6 8 10 12 14 16 16 15 14 14 15 15 15 16 16 15 16 19 19 18 17 18 20 24 27 28 28 27 28 30 31 31 32 32 33 34 36 37 39 41 43 44 45 46 47 47 47 47 48 48 49 49 50 50 49 48 47 46 44 42 41 40 39 38 37 37 38 38 39 41 42 44 47 50 53 55 56
6 5 5 6 6 8 8 9 10 13 16 18 19 19 18 17 17 19 19 19 19 21 22 23 23 22 21 20 21 22 24 27 29 29 29 29 30 30 31 32 33 34 35 37 39 40 42 43 45 46 47 47 48 48 49 49 50 50 50 49 49 47 46 45 44 42 41 40 40 40 39 39 39 39 39 39 41 43 45 48 50 52 55 57 59
8 8 9 10 11 12 13 14 17 19 22 23 23 21 19 20 21 23 24 25 26 27 27 27 26 25 25 25 26 29 32 34 36 35 34 33 32 32 32 33 35 36 38 40 42 43 44 46 47 48 49 49 49 50 50 50 49 49 47 46 45 44 43 43 42 41 41 41 40 40 40 41 41 42 43 44 45 47 50 52 53 54 55 56 58
10 10 11 12 14 16 18 22 24 26 26 25 24 23 23 24 26 29 31 31 31 31 30 29 29 29 31 32 34 37 39 41 41 40 38 36 35 34 34 35 37 39 42 43 45 46 46 47 48 49 49 49 49 48 48 47 47 46 45 45 44 44 43 43 42 42 42 41 41 41 41 42 43 44 46 47 49 51 52 53 53 53 53 52 52
11 12 14 17 20 23 26 28 29 28 27 26 26 27 29 30 32 33 34 34 34 33 33 33 33 34 36 37 39 41 43 43 42 40 38 37 37 36 36 38 39 41 43 44 45 46 47 47 47 47 47 47 47 46 46 46 45 45 45 44 44 43 43 43 43 43 43 42 43 43 44 45 45 46 47 48 49 50 50 49 48 48 47 47 47
15 18 22 25 28 30 30 30 29 29 29 30 31 33 35 35 36 36 35 35 35 36 36 37 37 38 40 41 42 43 43 42 40 38 37 37 37 38 39 41 42 43 44 45 46 46 46 46 46 46 45 45 45 45 45 45 45 44 43 43 43 43 43 43 44 44 44 44 45 46 46 46 46 47 46 46 45 45 45 44 43 42 42 41 42
25 29 31 33 34 34 33 32 31 33 34 36 37 38 38 38 38 38 38 38 38 38 39 40 41 42 44 45 45 45 44 41 39 38 37 37 38 40 41 43 44 45 46 46 46 46 46 45 45 45 45 44 44 43 42 42 42 42 42 42 43 43 43 43 44 44 44 45 46 47 47 46 45 44 43 42 41 40 39 39 39 39 38 38 37
35 37 38 38 38 37 37 37 37 38 39 40 40 40 41 41 41 41 41 42 42 42 43 44 45 46 47 47 46 45 43 41 40 39 39 39 40 42 43 44 45 45 45 45 45 45 44 44 44 44 43 42 42 41 41 41 42 42 43 43 44 44 45 46 46 46 46 46 47 47 46 45 44 42 41 40 38 37 36 35 36 36 36 36 35
41 42 42 41 41 41 41 41 42 42 42 42 43 43 44 44 44 45 46 46 46 47 47 48 49 49 48 47 46 44 42 42 41 41 42 43 44 44 44 44 44 44 44 43 43 43 43 43 43 42 42 42 42 42 43 43 44 45 45 45 46 46 47 48 48 47 46 46 46 45 43 42 40 39 37 36 35 35 34 33 33 32 31 31 32
45 45 44 44 44 44 44 44 45 46 46 47 48 48 48 49 49 49 50 50 50 50 50 50 49 48 47 46 44 43 43 43 43 44 44 44 44 44 44 43 43 43 43 43 43 43 43 44 44 44 44 44 44 45 45 45 46 46 46 46 47 47 47 47 46 44 43 43 42 40 39 37 35 34 32 31 31 32 33 34 34 33 31 29 29
48 47 47 47 47 47 48 49 50 50 51 52 53 53 53 53 53 53 53 53 52 52 51 50 49 48 47 46 45 45 45 44 44 44 44 44 44 43 43 43 43 43 43 43 44 45 45 45 46 46 46 46 46 46 46 46 46 46 45 45 45 45 45 44 42 41 40 39 37 35 33 31 30 30 30 29 30 31 34 35 36 35 34 32 30
51 51 51 51 52 52 53 54 54 55 55 55 56 56 55 55 55 55 54 54 53 52 51 50 49 48 48 47 46 46 45 45 44 44 44 43 44 44 44 44 44 44 44 45 45 45 46 46 46 46 46 46 46 46 45 45 44 43 42 42 42 42 41 39 37 35 34 31 29 27 26 26 27 28 28 29 30 32 34 34 32 30 29 28 27
55 56 56 57 57 57 58 58 58 58 57 57 57 57 56 56 55 55 54 53 53 52 51 50 49 48 47 46 45 45 44 44 44 44 44 44 44 44 44 45 45 45 45 45 45 45 45 45 45 45 45 44 44 43 42 41 40 39 38 38 37 36 35 32 30 28 26 24 23 23 23 24 25 25 25 27 29 30 30 28 27 26 25 23 22
60 60 60 61 61 60 60 60 59 59 58 58 57 56 56 55 54 54 53 52 51 50 49 48 48 47 46 45 45 44 44 44 44 44 44 45 45 45 45 45 45 45 45 45 45 45 45 44 44 44 43 42 41 40 39 37 36 35 34 33 32 30 28 26 24 23 22 22 23 24 25 25 23 22 22 23 24 24 23 22 21 21 21 20 20
64 64 64 63 63 62 61 60 59 59 58 57 56 55 54 53 52 52 51 50 49 49 48 47 47 46 46 45 45 45 45 44 44 44 44 44 44 44 44 44 44 44 44 44 44 44 43 43 42 41 40 39 38 36 35 33 32 31 30 28 27 25 24 23 23 23 24 24 25 25 24 23 21 20 20 20 18 17 17 17 17 17 16 16 16
Height
3024 3020 3016 3013 3009 3005 3001 2997 2993 2989 2985 2981 2977 2974 2970 2966 2962 2958 2954 2949 2945 2940 2936 2932 2927 2923 2919 2915 2911 2907 2902 2898 2894 2889 2885 2881 2877 2874 2871 2868 2865 2862 2859 2856 2852 2850 2848 2845 2842 2840 2837 2836 2834 2832 2830 2827 2825 2824 2821 2820 2819 2817 2816 2814 2813 2815 2815 2812 2809 2809 2809 2809 2808 2807 2807 2807 2807 2807 2807 2807 2807 2807 2808 2809 2810
3019 3015 3011 3007 3003 2999 2995 2990 2986 2982 2978 2974 2970 2966 2963 2959 2955 2950 2946 2941 2937 2932 2928 2923 2919 2915 2910 2906 2902 2898 2894 2890 2886 2882 2878 2874 2871 2867 2864 2861 2858 2855 2851 2848 2846 2843 2841 2839 2836 2834 2832 2830 2828 2826 2824 2822 2820 2818 2816 2814 2813 2811 2810 2808 2807 2807 2808 2806 2804 2804 2804 2803 2802 2800 2800 2800 2800 2800 2800 2800 2801 2801 2801 2802 2802
3012 3008 3004 3000 2996 2992 2988 2984 2979 2975 2971 2967 2963 2959 2955 2951 2947 2942 2937 2933 2928 2924 2919 2915 2911 2907 2902 2898 2894 2890 2886 2883 2879 2875 2871 2867 2864 2861 2858 2855 2851 2848 2845 2842 2840 2838 2835 2833 2831 2829 2826 2824 2823 2820 2818 2817 2815 2813 2811 2809 2808 2806 2805 2803 2802 2801 2801 2800 2799 2798 2798 2797 2795 2794 2793 2793 2792 2792 2792 2793 2794 2794 2794 2794 2795
3007 3003 2999 2994 2990 2986 2982 2978 2974 2969 2965 2961 2956 2952 2947 2943 2938 2934 2929 2925 2921 2916 2912 2908 2904 2899 2895 2891 2887 2883 2879 2876 2871 2868 2863 2860 2858 2855 2852 2849 2845 2842 2840 2837 2835 2833 2830 2828 2826 2823 2821 2819 2817 2815 2813 2812 2810 2808 2806 2804 2802 2801 2799 2798 2796 2795 2794 2793 2792 2791 2791 2790 2788 2787 2786 2786 2785 2785 2785 2786 2786 2786 2787 2787 2788
3001 2997 2993 2989 2985 2981 2976 2972 2968 2963 2959 2954 2949 2944 2940 2935 2931 2926 2922 2917 2914 2910 2906 2902 2897 2893 2888 2885 2881 2876 2872 2869 2865 2861 2858 2855 2852 2850 2847 2844 2841 2838 2835 2833 2830 2828 2825 2823 2820 2818 2816 2814 2812 2810 2808 2806 2804 2802 2800 2798 2796 2795 2794 2792 2790 2789 2787 2786 2786 2785 2784 2783 2781 2780 2779 2778 2778 2778 2778 2778 2778 2778 2779 2780 2781
2996 2992 2988 2983 2979 2975 2970 2966 2961 2956 2951 2946 2942 2937 2932 2928 2923 2919 2915 2911 2907 2904 2900 2895 2891 2888 2883 2879 2875 2871 2866 2862 2859 2856 2854 2851 2848 2845 2842 2838 2835 2833 2830 2828 2825 2823 2820 2817 2814 2812 2810 2808 2806 2804 2802 2800 2799 2797 2795 2793 2791 2790 2788 2786 2784 2783 2781 2780 2779 2778 2777 2776 2775 2774 2772 2771 2771 2771 2770 2771 2772 2772 2771 2772 2773
2990 2986 2982 2977 2972 2968 2963 2958 2953 2949 2944 2939 2934 2930 2925 2920 2916 2912 2908 2904 2901 2897 2894 2890 2885 2881 2877 2873 2869 2865 2860 2856 2854 2851 2849 2847 2843 2839 2836 2833 2831 2828 2825 2822 2820 2817 2814 2811 2809 2807 2805 2803 2801 2799 2797 2795 2793 2792 2790 2788 2786 2784 2782 2780 2778 2777 2775 2774 2773 2772 2771 2771 2769 2768 2766 2765 2765 2764 2763 2763 2764 2765 2765 2765 2766
2984 2980 2975 2970 2966 2961 2956 2951 2946 2941 2937 2932 2927 2923 2918 2914 2910 2906 2902 2899 2895 2891 2887 2884 2879 2875 2871 2867 2863 2859 2854 2850 2848 2846 2844 2841 2838 2833 2830 2829 2826 2824 2820 2818 2815 2812 2810 2807 2805 2803 2801 2798 2796 2794 2792 2790 2788 2787 2785 2783 2781 2779 2777 2775 2774 2772 2770 2769 2768 2766 2766 2765 2764 2762 2761 2759 2758 2758 2757 2756 2757 2758 2759 2759 2759
2978 2974 2969 2964 2959 2955 2950 2945 2940 2935 2930 2926 2921 2917 2913 2909 2905 2901 2897 2893 2889 2885 2881 2877 2873 2869 2865 2861 2857 2853 2849 2844 2841 2840 2840 2837 2832 2828 2826 2824 2821 2819 2816 2814 2811 2808 2806 2804 2801 2799 2797 2795 2793 2790 2788 2786 2784 2782 2780 2778 2776 2774 2773 2771 2769 2767 2766 2764 2762 2761 2761 2760 2759 2757 2756 2754 2752 2752 2751 2751 2751 2752 2752 2753 2753
2973 2968 2963 2958 2953 2948 2943 2938 2934 2929 2924 2920 2916 2912 2908 2904 2900 2895 2891 2887 2883 2879 2875 2870 2866 2863 2860 2856 2853 2848 2845 2841 2836 2833 2833 2832 2827 2823 2822 2819 2816 2814 2812 2810 2808 2805 2803 2801 2798 2796 2794 2791 2789 2787 2785 2783 2780 2778 2776 2774 2772 2770 2769 2767 2765 2763 2761 2759 2758 2757 2756 2755 2754 2752 2751 2749 2748 2747 2746 2745 2746 2746 2747 2748 2748
2967 2962 2957 2952 2947 2942 2937 2932 2928 2923 2919 2915 2911 2906 2902 2898 2893 2889 2885 2881 2877 2873 2870 2865 2861 2858 2855 2851 2848 2844 2840 2837 2833 2829 2828 2827 2823 2820 2818 2815 2813 2811 2809 2807 2805 2802 2800 2798 2795 2793 2791 2789 2787 2784 2782 2780 2778 2775 2773 2771 2769 2766 2765 2763 2761 2759 2757 2756 2754 2753 2751 2750 2749 2747 2746 2744 2743 2742 2741 2741 2741 2741 2742 2743 2743
2961 2956 2951 2946 2941 2936 2931 2926 2922 2917 2913 2909 2905 2900 2896 2891 2887 2883 2879 2875 2872 2868 2864 2860 2856 2853 2850 2847 2843 2840 2837 2834 2831 2827 2824 2823 2820 2817 2814 2812 2810 2808 2805 2803 2801 2799 2797 2795 2792 2790 2788 2786 2784 2782 2779 2777 2775 2773 2771 2768 2766 2764 2761 2759 2757 2755 2753 2752 2750 2749 2747 2746 2744 2743 2742 2740 2739 2739 2738 2737 2737 2737 2737 2738 2738
2955 2950 2946 2941 2935 2930 2926 2921 2916 2912 2907 2903 2898 2894 2890 2886 2882 2878 2874 2871 2867 2864 2860 2856 2853 2849 2846 2843 2840 2837 2834 2831 2828 2825 2822 2820 2817 2814 2812 2809 2807 2805 2803 2800 2798 2796 2794 2792 2790 2788 2785 2783 2781 2778 2776 2774 2772 2770 2767 2765 2763 2761 2758 2756 2753 2751 2749 2747 2746 2744 2743 2741 2740 2739 2738 2737 2736 2735 2735 2734 2733 2733 2733 2734 2734
2950 2945 2940 2935 2930 2925 2920 2916 2911 2907 2902 2897 2893 2889 2885 2881 2877 2873 2870 2867 2863 2860 2857 2853 2849 2846 2842 2839 2837 2834 2831 2828 2826 2823 2820 2817 2815 2812 2809 2807 2804 2802 2800 2797 2795 2793 2791 2789 2787 2785 2783 2780 2778 2775 2773 2771 2769 2766 2764 2762 2760 2757 2755 2752 2750 2748 2746 2744 2742 2741 2739 2737 2736 2734 2733 2733 2733 2732 2731 2731 2730 2730 2730 2730 2730
2945 2940 2935 2930 2925 2920 2916 2911 2906 2902 2897 2892 2889 2884 2880 2877 2873 2869 2866 2863 2859 2856 2853 2849 2846 2843 2840 2837 2834 2831 2828 2826 2823 2821 2818 2816 2813 2810 2807 2805 2802 2800 2797 2795 2792 2790 2788 2786 2784 2782 2779 2777 2774 2771 2769 2767 2765 2762 2760 2758 2756 2754 2751 2749 2747 2745 2743 2741 2740 2738 2736 2735 2734 2732 2730 2730 2730 2730 2728 2728 2727 2727 2727 2727 2727
2939 2934 2930 2925 2920 2916 2911 2906 2902 2898 2893 2888 2884 2881 2877 2873 2870 2866 2862 2859 2856 2852 2850 2847 2844 2840 2837 2835 2832 2829 2826 2824 2821 2819 2816 2814 2811 2809 2806 2803 2800 2798 2795 2793 2790 2788 2785 2783 2781 2778 2776 2773 2771 2768 2765 2763 2761 2758 2756 2754 2753 2751 2748 2745 2743 2741 2740 2739 2737 2735 2733 2732 2732 2730 2728 2727 2728 2728 2726 2725 2725 2724 2724 2724 2724
2934 2930 2925 2920 2916 2911 2906 2902 2897 2893 2889 2885 2880 2877 2873 2870 2866 2863 2859 2856 2853 2850 2847 2844 2841 2838 2835 2832 2830 2827 2824 2822 2819 2817 2814 2812 2809 2807 2804 2801 2799 2796 2793 2791 2788 2785 2782 2780 2777 2775 2772 2770 2767 2765 2762 2760 2757 2755 2753 2751 2750 2748 2746 2743 2741 2739 2737 2736 2735 2733 2732 2731 2730 2729 2727 2726 2726 2725 2724 2723 2723 2722 2722 2721 2721
2930 2925 2921 2916 2912 2907 2902 2898 2893 2889 2885 2882 2877 2873 2870 2866 2863 2860 2857 2853 2850 2847 2845 2842 2839 2836 2833 2830 2828 2825 2822 2820 2817 2815 2812 2810 2807 2805 2802 2800 2797 2794 2792 2789 2786 2783 2780 2777 2774 2771 2769 2766 2764 2761 2759 2756 2754 2751 2750 2748 2747 2745 2743 2741 2739 2737 2735 2734 2732 2731 2730 2730 2729 2728 2727 2726 2724 2724 2722 2722 2721 2720 2720 2719 2719
2925 2921 2916 2911 2907 2902 2898 2893 2890 2886 2882 2879 2875 2871 2867 2864 2860 2857 2854 2851 2848 2845 2842 2839 2837 2834 2831 2829 2826 2824 2821 2818 2815 2813 2810 2807 2805 2802 2800 2797 2795 2792 2790 2787 2784 2781 2778 2775 2772 2769 2766 2764 2761 2759 2756 2754 2751 2749 2747 2745 2744 2742 2740 2739 2737 2736 2734 2733 2731 2730 2729 2728 2727 2727 2726 2724 2723 2722 2721 2720 2719 2718 2718 2718 2717
2921 2916 2912 2907 2903 2899 2895 2890 2887 2883 2879 2876 2872 2869 2865 2861 2858 2855 2852 2849 2846 2843 2840 2837 2835 2832 2830 2827 2824 2822 2819 2816 2813 2811 2808 2805 2802 2799 2797 2794 2792 2789 2787 2784 2781 2779 2776 2773 2770 2768 2764 2762 2759 2756 2754 2752 2749 2747 2745 2743 2742 2740 2738 2737 2735 2734 2733 2731 2730 2729 2728 2727 2726 2725 2724 2723 2722 2721 2720 2719 2718 2717 2717 2716 2716
2917 2912 2908 2904 2900 2896 2892 2888 2884 2880 2877 2873 2870 2866 2863 2860 2857 2853 2850 2847 2845 2842 2839 2836 2833 2830 2828 2825 2822 2820 2817 2814 2811 2809 2806 2803 2800 2797 2794 2791 2789 2786 2784 2781 2779 2776 2774 2771 2768 2765 2763 2759 2757 2754 2752 2750 2748 2745 2743 2741 2739 2738 2736 2735 2734 2732 2731 2730 2729 2728 2727 2726 2725 2724 2723 2722 2721 2720 2719 2718 2717 2716 2716 2715 2715
2913 2909 2905 2901 2897 2894 2890 2886 2882 2879 2875 2872 2868 2864 2861 2858 2855 2852 2849 2846 2844 2841 2838 2836 2833 2829 2826 2824 2821 2818 2815 2812 2810 2807 2804 2801 2798 2794 2791 2789 2786 2783 2781 2779 2776 2774 2771 2768 2765 2763 2760 2757 2755 2753 2751 2749 2747 2745 2742 2740 2738 2736 2735 2734 2732 2731 2730 2729 2728 2727 2726 2725 2724 2723 2722 2721 2720 2719 2718 2717 2717 2716 2715 2715 2714
2910 2906 2902 2898 2895 2891 2888 2885 2881 2877 2874 2870 2867 2863 2860 2857 2854 2851 2848 2845 2843 2840 2838 2835 2832 2829 2826 2823 2820 2817 2814 2811 2808 2805 2802 2800 2796 2793 2790 2787 2784 2781 2779 2777 2774 2771 2768 2765 2763 2761 2758 2756 2754 2752 2750 2748 2746 2744 2742 2740 2738 2736 2734 2733 2732 2731 2730 2729 2728 2727 2726 2725 2724 2723 2722 2721 2720 2719 2718 2717 2716 2716 2715 2714 2714
2908 2904 2900 2896 2892 2889 2886 2883 2879 2876 2872 2869 2865 2862 2859 2856 2853 2850 2847 2845 2842 2839 2837 2834 2831 2829 2826 2823 2820 2817 2814 2811 2808 2805 2802 2799 2796 2792 2789 2786 2783 2780 2777 2774 2772 2769 2766 2764 2761 2759 2757 2755 2753 2751 2748 2746 2745 2743 2741 2739 2738 2736 2734 2733 2732 2731 2730 2729 2727 2726 2726 2725 2724 2723 2722 2721 2720 2719 2718 2717 2716 2715 2714 2714 2713
2905 2902 2898 2895 2891 2887 2883 2880 2877 2873 2870 2867 2864 2860 2857 2855 2852 2849 2846 2844 2841 2838 2835 2833 2830 2828 2825 2822 2819 2816 2814 2810 2807 2804 2801 2798 2795 2792 2789 2785 2782 2779 2776 2773 2770 2767 2765 2762 2760 2758 2756 2754 2752 2750 2748 2746 2744 2742 2741 2739 2738 2736 2735 2733 2732 2731 2730 2729 2728 2727 2726 2725 2724 2723 2722 2721 2720 2719 2718 2717 2716 2715 2714 2714 2714
2903 2900 2896 2893 2889 2885 2881 2878 2874 2871 2868 2864 2861 2859 2855 2853 2850 2848 2845 2842 2839 2837 2834 2832 2829 2827 2824 2821 2818 2815 2813 2810 2807 2804 2802 2799 2795 2792 2788 2785 2782 2779 2775 2773 2770 2767 2764 2762 2760 2758 2756 2754 2752 2750 2748 2746 2744 2742 2741 2739 2738 2737 2735 2734 2733 2732 2730 2729 2728 2727 2726 2725 2725 2724 2723 2722 2721 2720 2719 2718 2717 2716 2715 2714 2714
2901 2898 2894 2891 2887 2884 2880 2876 2872 2869 2866 2863 2860 2857 2854 2851 2849 2846 2844 2841 2838 2836 2833 2831 2828 2826 2823 2821 2817 2814 2811 2809 2806 2804 2802 2799 2795 2792 2788 2785 2782 2779 2776 2773 2770 2768 2765 2762 2759 2757 2754 2752 2750 2748 2747 2745 2744 2742 2741 2739 2738 2737 2736 2735 2733 2732 2731 2730 2729 2728 2727 2726 2725 2724 2724 2723 2722 2721 2720 2719 2718 2717 2716 2715 2714
2899 2896 2892 2888 2885 2881 2878 2874 2870 2867 2863 2860 2857 2855 2852 2849 2846 2844 2842 2839 2836 2834 2831 2829 2826 2824 2821 2819 2817 2814 2811 2808 2805 2802 2800 2797 2794 2791 2788 2785 2782 2779 2777 2773 2770 2767 2764 2761 2759 2756 2754 2752 2750 2748 2747 2746 2744 2743 2741 2740 2739 2738 2736 2735 2734 2733 2732 2731 2730 2729 2728 2727 2727 2726 2725 2724 2723 2722 2721 2720 2719 2718 2717 2716 2715
2897 2893 2890 2886 2882 2879 2876 2872 2869 2865 2862 2858 2855 2852 2849 2847 2844 2841 2839 2836 2834 2831 2829 2827 2825 2822 2819 2817 2815 2812 2809 2806 2803 2800 2797 2795 2792 2790 2787 2785 2782 2779 2776 2773 2770 2767 2764 2762 2760 2758 2756 2754 2752 2750 2748 2746 2745 2744 2742 2741 2740 2739 2738 2737 2736 2734 2733 2732 2731 2730 2730 2729 2728 2727 2726 2725 2724 2723 2722 2721 2720 2719 2719 2718 2717
2895 2891 2888 2885 2881 2878 2874 2871 2868 2864 2861 2857 2853 2849 2846 2843 2841 2840 2837 2835 2833 2830 2828 2826 2824 2822 2819 2816 2813 2811 2808 2805 2802 2800 2797 2795 2793 2790 2787 2785 2782 2779 2776 2773 2770 2768 2765 2763 2761 2759 2757 2754 2753 2751 2749 2748 2746 2745 2744 2743 2742 2741 2740 2739 2737 2736 2735 2734 2733 2732 2731 2731 2730 2729 2727 2726 2726 2724 2723 2722 2722 2721 2720 2719 2718
2893 2890 2886 2883 2880 2876 2873 2869 2866 2862 2859 2856 2853 2849 2845 2842 2840 2838 2836 2835 2832 2830 2828 2826 2824 2822 2820 2817 2814 2811 2809 2806 2803 2801 2798 2796 2794 2791 2788 2785 2782 2780 2776 2774 2771 2769 2766 2764 2761 2759 2757 2755 2754 2752 2751 2749 2748 2747 2746 2745 2744 2743 2741 2740 2739 2738 2737 2736 2735 2734 2733 2732 2731 2730 2729 2728 2727 2726 2725 2724 2723 2723 2722 2721 2720
2891 2888 2885 2881 2878 2875 2871 2867 2864 2861 2858 2855 2853 2850 2847 2844 2840 2837 2836 2834 2833 2831 2829 2827 2825 2823 2820 2818 2815 2813 2810 2808 2805 2802 2800 2797 2794 2792 2789 2787 2784 2780 2777 2775 2772 2770 2768 2765 2763 2761 2759 2757 2755 2754 2753 2752 2750 2749 2748 2747 2746 2745 2744 2743 2742 2741 2740 2739 2738 2737 2736 2735 2733 2732 2731 2730 2729 2728 2727 2726 2725 2725 2724 2723 2722
2889 2886 2883 2880 2876 2873 2869 2866 2863 2860 2858 2855 2852 2850 2848 2846 2843 2839 2836 2834 2832 2831 2829 2828 2825 2823 2821 2819 2816 2814 2812 2809 2806 2804 2801 2798 2796 2793 2790 2787 2784 2782 2780 2777 2775 2773 2770 2767 2765 2763 2761 2759 2758 2757 2755 2754 2753 2752 2751 2750 2749 2748 2747 2745 2744 2743 2742 2741 2740 2739 2738 2737 2736 2735 2734 2733 2732 2731 2729 2728 2728 2727 2726 2725 2724
2888 2885 2881 2878 2874 2871 2868 2865 2862 2860 2857 2854 2852 2849 2847 2845 2844 2841 2839 2836 2834 2832 2831 2829 2827 2824 2822 2820 2818 2815 2813 2810 2808 2806 2803 2800 2798 2795 2791 2788 2786 2785 2783 2780 2778 2775 2772 2770 2768 2766 2764 2762 2761 2760 2759 2757 2756 2755 2754 2753 2752 2750 2749 2748 2747 2746 2745 2744 2743 2742 2741 2739 2738 2737 2736 2735 2734 2733 2732 2731 2730 2729 2728 2727 2726
2886 2883 2880 2876 2873 2870 2867 2865 2862 2859 2857 2854 2852 2850 2848 2846 2844 2842 2841 2839 2836 2834 2832 2830 2828 2826 2823 2821 2819 2817 2814 2812 2810 2808 2805 2803 2800 2797 2795 2793 2791 2789 2786 2783 2780 2778 2775 2773 2771 2769 2768 2766 2764 2763 2762 2761 2760 2758 2757 2756 2755 2754 2753 2752 2751 2749 2748 2747 2746 2745 2743 2742 2741 2740 2739 2738 2737 2735 2734 2733 2732 2731 2730 2730 2729
2886 2883 2879 2876 2874 2871 2868 2865 2862 2860 2857 2855 2852 2850 2849 2847 2845 2843 2841 2839 2837 2835 2832 2830 2828 2826 2824 2821 2819 2818 2816 2814 2812 2809 2807 2805 2803 2801 2799 2797 2794 2791 2788 2786 2783 2781 2779 2777 2775 2773 2771 2770 2768 2767 2766 2764 2763 2762 2761 2760 2758 2757 2756 2755 2754 2753 2751 2750 2749 2748 2746 2745 2744 2743 2741 2740 2739 2738 2737 2736 2735 2734 2733 2732 2731
2887 2884 2881 2878 2875 2872 2869 2866 2863 2860 2858 2856 2854 2852 2850 2848 2847 2845 2843 2841 2839 2836 2834 2832 2830 2827 2825 2824 2822 2819 2817 2815 2813 2810 2809 2807 2805 2804 2801 2799 2796 2793 2791 2789 2786 2784 2782 2780 2779 2777 2775 2774 2772 2771 2770 2768 2767 2766 2765 2763 2762 2761 2760 2759 2757 2756 2755 2753 2752 2751 2750 2748 2747 2746 2744 2743 2742 2740 2739 2738 2737 2736 2735 2734 2734
2888 2885 2882 2879 2876 2873 2870 2867 2864 2862 2859 2857 2855 2854 2852 2850 2848 2847 2845 2842 2840 2838 2836 2834 2833 2831 2828 2826 2824 2822 2819 2817 2816 2814 2813 2811 2809 2806 2804 2801 2799 2797 2794 2792 2790 2788 2786 2784 2782 2781 2779 2778 2776 2775 2774 2772 2771 2770 2768 2767 2766 2764 2763 2762 2760 2759 2758 2757 2755 2754 2753 2751 2750 2749 2747 2746 2745 2743 2742 2741 2740 2739 2738 2738 2737
2890 2887 2884 2881 2878 2874 2871 2868 2866 2864 2862 2860 2858 2856 2854 2852 2850 2848 2846 2844 2842 2840 2839 2837 2835 2833 2831 2829 2827 2825 2823 2822 2820 2819 2817 2814 2812 2809 2807 2804 2802 2800 2798 2796 2794 2792 2790 2788 2787 2785 2783 2782 2780 2779 2778 2776 2775 2774 2772 2771 2770 2768 2767 2765 2764 2763 2761 2760 2759 2757 2756 2754 2753 2752 2750 2749 2748 2747 2746 2745 2743 2742 2741 2741 2740
2892 2889 2885 2882 2879 2876 2873 2871 2868 2866 2864 2862 2860 2859 2857 2854 2853 2851 2849 2847 2845 2843 2841 2839 2837 2835 2833 2831 2830 2828 2826 2825 2823 2821 2819 2817 2815 2812 2810 2808 2806 2804 2802 2800 2798 2796 2794 2793 2791 2789 2788 2786 2785 2783 2782 2780 2779 2778 2776 2775 2773 2772 2770 2769 2768 2766 2765 2763 2762 2760 2759 2758 2756 2755 2754 2752 2751 2750 2749 2748 2747 2746 2745 2743 2742
2894 2890 2887 2884 2881 2878 2875 2873 2870 2869 2867 2865 2863 2861 2859 2857 2855 2853 2851 2849 2847 2845 2843 2841 2839 2837 2836 2834 2832 2830 2829 2827 2825 2824 2822 2820 2817 2815 2813 2811 2809 2807 2805 2803 2801 2800 2798 2796 2795 2793 2792 2790 2789 2787 2786 2784 2783 2781 2780 2778 2777 2775 2774 2772 2771 2770 2768 2767 2765 2764 2763 2761 2760 2758 2757 2756 2755 2753 2752 2751 2750 2749 2748 2747 2746
2895 2892 2888 2885 2882 2880 2877 2875 2873 2871 2869 2867 2865 2863 2861 2859 2857 2855 2853 2852 2850 2848 2846 2844 2842 2840 2838 2836 2835 2833 2832 2830 2828 2826 2824 2822 2820 2818 2816 2814 2812 2811 2809 2807 2805 2803 2802 2800 2799 2797 2795 2794 2792 2791 2789 2788 2786 2785 2783 2781 2780 2779 2777 2776 2774 2773 2772 2770 2769 2767 2766 2765 2763 2762 2761 2759 2758 2757 2756 2754 2753 2753 2752 2751 2750
2896 2893 2890 2887 2884 2882 2880 2877 2876 2874 2872 2870 2868 2866 2864 2862 2860 2858 2856 2854 2852 2850 2848 2846 2845 2843 2841 2840 2838 2836 2834 2833 2831 2829 2827 2825 2823 2821 2820 2818 2816 2814 2812 2810 2809 2807 2805 2804 2802 2801 2799 2798 2796 2794 2793 2791 2790 2788 2787 2785 2784 2782 2781 2779 2778 2777 2775 2774 2773 2771 2770 2768 2767 2766 2764 2763 2762 2760 2759 2758 2757 2756 2755 2754 2753
2898 2895 2892 2889 2887 2884 2882 2880 2878 2876 2875 2873 2871 2869 2867 2865 2863 2861 2859 2857 2855 2853 2851 2850 2848 2846 2844 2843 2841 2839 2837 2836 2834 2832 2830 2828 2826 2825 2823 2821 2819 2818 2816 2814 2812 2811 2809 2807 2806 2804 2803 2801 2799 2798 2796 2795 2793 2792 2790 2789 2787 2786 2785 2783 2782 2781 2779 2778 2777 2775 2774 2772 2771 2770 2768 2767 2766 2765 2763 2762 2761 2760 2759 2757 2756
2899 2897 2894 2891 2889 2887 2885 2883 2882 2880 2878 2876 2874 2871 2870 2868 2866 2864 2862 2860 2858 2856 2855 2853 2851 2850 2848 2846 2844 2843 2841 2839 2837 2835 2834 2832 2830 2828 2827 2825 2823 2821 2819 2818 2816 2814 2813 2811 2809 2808 2806 2804 2803 2801 2800 2799 2797 2796 2794 2793 2791 2790 2788 2787 2786 2784 2783 2782 2780 2779 2778 2776 2775 2773 2772 2771 2769 2768 2767 2765 2764 2762 2761 2760 2759
2901 2898 2896 2894 2892 2890 2888 2887 2885 2883 2881 2879 2877 2875 2873 2871 2869 2867 2865 2863 2862 2860 2858 2857 2855 2853 2851 2850 2848 2846 2844 2842 2840 2839 2837 2835 2834 2832 2830 2829 2827 2825 2823 2821 2820 2818 2816 2815 2813 2811 2810 2808 2807 2805 2804 2802 2801 2800 2798 2797 2795 2794 2792 2791 2789 2788 2787 2786 2784 2783 2781 2780 2778 2777 2775 2774 2772 2771 2769 2768 2766 2765 2764 2762 2761
2903 2900 2898 2897 2895 2893 2891 2890 2888 2886 2884 2882 2880 2878 2876 2874 2872 2871 2869 2867 2865 2864 2862 2860 2858 2857 2855 2853 2851 2849 2848 2846 2844 2842 2841 2839 2837 2836 2834 2832 2830 2829 2827 2825 2823 2822 2820 2818 2817 2815 2814 2812 2811 2809 2808 2806 2805 2803 2802 2800 2799 2797 2796 2794 2793 2792 2791 2789 2788 2786 2785 2783 2781 2780 2778 2776 2775 2773 2772 2770 2769 2768 2766 2765 2763
2905 2903 2901 2900 2898 2896 2895 2893 2891 2889 2887 2885 2883 2881 2880 2878 2876 2874 2873 2871 2869 2867 2866 2864 2862 2860 2858 2857 2855 2853 2851 2850 2848 2846 2844 2842 2841 2839 2837 2835 2834 2832 2830 2829 2827 2825 2824 2822 2820 2819 2817 2816 2814 2813 2811 2810 2808 2807 2806 2804 2803 2801 2799 2798 2797 2795 2794 2792 2790 2789 2787 2785 2784 2782 2780 2779 2777 2776 2774 2773 2771 2770 2768 2767 2765
2908 2906 2905 2903 2901 2900 2898 2896 2894 2892 2890 2889 2887 2885 2884 2882 2880 2878 2876 2875 2873 2871 2869 2867 2866 2864 2862 2860 2858 2857 2855 2853 2851 2849 2847 2846 2844 2842 2841 2839 2837 2835 2834 2832 2831 2829 2827 2826 2824 2823 2821 2819 2818 2816 2815 2813 2812 2811 2809 2808 2806 2804 2803 2801 2800 2798 2796 2794 2793 2791 2789 2787 2786 2784 2783 2781 2780 2778 2776 2775 2773 2772 2770 2769 2767
2911 2910 2908 2906 2905 2903 2901 2900 2898 2896 2894 2892 2891 2889 2887 2886 2884 2882 2880 2878 2876 2875 2873 2871 2869 2867 2865 2864 2862 2860 2858 2856 2855 2853 2851 2849 2848 2846 2844 2842 2841 2839 2837 2836 2834 2833 2831 2829 2828 2826 2824 2823 2821 2820 2818 2817 2815 2814 2812 2811 2809 2807 2806 2804 2802 2800 2799 2797 2795 2793 2792 2790 2788 2786 2785 2783 2781 2780 2778 2777 2775 2774 2772 2770 2769
2914 2913 2911 2910 2908 2907 2905 2903 2901 2899 2898 2896 2894 2893 2891 2889 2887 2885 2884 2882 2880 2878 2876 2875 2873 2871 2869 2868 2866 2864 2862 2860 2858 2857 2855 2853 2851 2849 2848 2846 2844 2842 2841 2839 2838 2836 2835 2833 2831 2829 2828 2826 2825 2823 2822 2820 2818 2817 2815 2813 2812 2810 2808 2806 2804 2802 2801 2799 2797 2796 2794 2792 2791 2789 2787 2785 2784 2782 2780 2778 2777 2775 2773 2771 2770